Location: ??
(35.4824°N, 139.4679°E)
Time: 19:53:07
(UTC+00:00)

Envisat - Visible Passes

Search period start: 18 January 2021 00:00
Search period end: 28 January 2021 00:00
Orbit: 764 x 766 km, 98.1° (Epoch: 18 January)

Date Brightness Start Highest point End Pass type
(mag) Time Alt. Az. Time Alt. Az. Time Alt. Az.
18 Jan 5.2 08:29:14 10° SSW 08:33:40 30° W 08:38:07 10° NW visible
18 Jan 6.2 19:04:42 10° ENE 19:06:03 11° E 19:07:24 10° ESE visible
18 Jan 2.9 20:40:26 10° N 20:45:29 69° WNW 20:50:31 10° SSW visible
19 Jan 3.9 20:03:45 10° NNE 20:08:41 49° E 20:13:35 10° S visible
20 Jan 6.0 08:56:05 10° SW 08:59:15 17° W 09:02:26 10° NW visible
20 Jan 5.5 19:27:53 10° NE 19:31:42 21° E 19:35:28 10° SE visible
20 Jan 3.5 21:06:06 10° N 21:10:46 38° WNW 21:15:25 10° SW visible
21 Jan 3.0 20:28:59 10° NNE 20:34:06 89° W 20:39:10 10° SSW visible
22 Jan 4.4 19:52:30 10° NNE 19:57:14 38° E 20:01:55 10° SSE visible
23 Jan 5.9 08:43:55 10° SW 08:47:45 21° W 08:51:36 10° NW visible
23 Jan 5.8 19:17:04 10° NE 19:20:11 16° E 19:23:17 10° SE visible
23 Jan 3.2 20:54:32 10° N 20:59:25 49° WNW 21:04:17 10° SSW visible
24 Jan 3.3 20:17:36 10° NNE 20:22:42 71° ESE 20:27:44 10° S visible
25 Jan 6.4 09:11:51 10° WSW 09:13:23 11° W 09:14:56 10° WNW visible
25 Jan 4.9 19:41:21 10° NE 19:45:47 29° E 19:50:10 10° SSE visible
26 Jan 5.4 08:31:59 10° SSW 08:36:16 28° W 08:40:35 10° NW visible
26 Jan 6.1 19:06:40 10° ENE 19:08:40 12° E 19:10:40 10° ESE visible
26 Jan 3.0 20:43:01 10° N 20:48:03 63° WNW 20:53:03 10° SSW visible
27 Jan 3.7 20:06:17 10° NNE 20:11:16 54° E 20:16:13 10° S visible
